Location: Beetenbrück
(52.8113°N, 9.5946°E)
Time: 22:22:44
(UTC+00:00)

NOSS 2-1 (E) - Pass Details

Date: 14 April 2026
Orbit: 385 x 1749 km, 63.3° (Epoch: 7 May)

Event Time Altitude Azimuth Distance (km) Brightness Sun altitude
Rises 20:44:10 0° 312° (NW) 2,315 8.1 -19.1°
Reaches altitude 10° 20:46:03 10° 311° (NW) 1,505 6.8 -19.3°
Maximum altitude 20:49:17 78° 226° (SW) 488 2.9 -19.6°
Enters shadow 20:49:42 66° 163° (SSE) 531 2.9 -19.6°
